Starlink 4569

operational
NORAD ID: 53687 Int'l Des: 2022-105 Owner: SPXS Country: US Constellation: starlink
LEOCIRCULARRETROGRADESSO

关于 Starlink 4569

正在加载描述...

实时位置

正在加载3D地球...

即将过境

高度历史

Altitude vs Time

uPlot chart will show altitude changes over time

两行轨道根数

1 53687U 22105AR 25354.21850895 .00000173 00000-0 16237-4 0 9990
2 53687 97.6017 232.8416 0002147 86.2970 273.8502 15.05644409181345
Epoch: Dec 20, 2025 • Age: 20 hours

当前状态

高度 578.6 km
速度 7.57 km/s
星下点 -76.75°S, 93.48°W
发射日期 Aug 31, 2022
运行时间 3.3 years
类型 internet

技术详情

分类 Payload
质量 300.00 kg
干质量 290.00 kg
总质量 300.00 kg
长度 0.20 m
直径 2.80 m
跨度 9.00 m
形状 Box + pan
制造商 SPXS
平台类型 Starlink
阶段状态 In Orbit
所有者/国家 SPXS/US

大型星座

Loading constellations...